[[{"header":{"parameterUnit":"m.s-1","parameterCategory":1,"la1":30.2992,"la2":30.254,"lo1":-89.0895,"lo2":-89.0443,"dy":0.0025,"dx":0.0025,"nx":19,"ny":19,"refTime":"2026-04-07T03:00:00:Z","depth":0,"parameterNumber":2,"parameterNumberName":"U-component_of_WINDS"},"data":[0,0,0,-8.9181,-8.9186,-8.9391,-8.9392,-8.9695,-8.9698,0,0,0,0,0,0,0,0,0,0,0,-8.9145,-8.9148,-8.918,-8.9186,-8.9391,-8.9392,-8.9694,-8.9698,0,0,0,0,0,0,0,0,0,0,0,-8.9143,-8.9147,-8.915,-8.9187,-8.9391,-8.9392,-8.9693,-8.9524,0,0,0,0,0,0,0,0,0,0,-8.9318,-8.9308,-8.9146,-8.9151,-8.9189,-8.9391,-8.9392,-8.9515,-8.9535,-8.9619,0,-8.9701,0,-8.9704,-8.972,-8.9722,0,0,0,-8.9168,-8.9293,-8.9326,-8.9151,-8.9191,-8.9391,-8.9293,-8.9526,-8.9548,-8.9645,-8.9705,-8.9715,-8.9709,-8.9723,-8.9724,-9.0275,-9.0278,0,0,-8.9156,-8.9195,-8.9311,-8.9341,-8.9313,-8.9287,-8.93,-8.9538,-8.9606,-8.9706,-8.9721,-8.9714,-8.9725,-8.9728,-9.0271,-9.0276,0,0,0,-8.9136,-8.9188,-8.9214,-8.933,-8.9364,-8.9294,-8.9308,-8.9595,-8.96,-8.9724,-8.9718,-8.9727,-8.9731,-9.0268,-9.0273,-9.0482,0,0,0,-8.9129,-8.9176,-8.921,-8.9236,-8.936,-8.9482,-8.9361,-8.9584,-8.961,-8.9716,-8.9727,-8.9734,-9.0264,-9.027,-9.0468,-9.0574,0,0,0,-8.9123,-8.9175,-8.9213,-8.9237,-8.9327,-8.9477,-8.9496,-8.9588,-8.9607,-8.9722,-8.9735,-9.0261,-9.0269,-9.0455,-9.0554,-9.0732,0,0,0,-8.9127,-8.9394,-8.9217,-8.9513,-8.9326,-8.9605,-8.9494,-8.97,-8.9823,-8.9729,-9.0264,-9.0272,-9.0451,-9.0541,-9.0719,-9.089,-9.0964,0,0,-8.9486,-8.9439,-8.961,-8.9457,-8.9778,-8.957,-8.9922,-8.9998,-8.9973,-9.0175,-9.0188,-9.0472,-9.0552,-9.0729,-9.1366,-9.1425,0,0,0,-8.9736,-8.986,-8.9936,-9.0056,-9.0122,-9.0187,-9.0205,-9.0233,-9.0403,-9.0085,-9.0583,-9.0629,-9.0731,-9.0811,-9.0862,-9.0948,-9.0311,-9.031,-9.0309,-9.0299,-9.0254,-9.0534,-9.0515,-9.0632,-9.0649,-9.0741,-9.0782,-9.07,-9.0819,-9.0879,-9.1271,-9.1367,-9.1404,-9.1494,-9.0965,-9.0965,-9.0966,-9.0967,-9.082,-9.0989,-9.0876,-9.1108,-9.1059,-9.1253,-9.128,-9.1217,-9.1391,-9.1221,-9.1309,-9.113,-9.1471,-9.1547,-9.0982,-9.0979,-9.0977,-9.0976,-9.0975,-9.1185,-9.1258,-9.1288,-9.1458,-9.1594,-9.1564,-9.1738,-9.1686,-9.1638,-9.1725,-9.1784,-9.1781,-9.1772,-9.1756,-9.1758,-9.1759,-9.176,-9.1761,-9.1762,-9.1552,-9.1579,-9.1732,-9.1825,-9.1896,-9.1983,-9.2003,-9.2072,-9.2134,-9.2083,-9.2083,-9.1992,-9.1512,-9.1394,-9.1783,-9.178,-9.1777,-9.1775,-9.1773,-9.21,-9.1968,-9.2204,-9.2276,-9.2381,-9.2521,-9.2452,-9.2597,-9.2645,-9.2733,-9.2623,-9.2276,-9.2224,-9.2184,-9.2085,-9.2631,-9.2631,-9.2631,-9.2631,-9.2409,-9.2377,-9.2608,-9.2726,-9.2835,-9.2798,-9.3067,-9.3087,-9.3085,-9.3113,-9.3026,-9.2891,-9.2852,-9.2823,-9.2769,-9.2676,-9.336,-9.336,-9.3361,-9.2744,-9.2721,-9.296,-9.2958,-9.3037,-9.3107,-9.3358,-9.3499,-9.3469,-9.339,-9.3134,-9.3104,-9.2884,-9.2815,-9.273,-9.2647,-9.2476,0,0]},{"header":{"parameterUnit":"m.s-1","parameterCategory":1,"la1":30.2992,"la2":30.254,"lo1":-89.0895,"lo2":-89.0443,"dy":0.0025,"dx":0.0025,"nx":19,"ny":19,"refTime":"2026-04-07T03:00:00:Z","depth":0,"parameterNumber":3,"parameterNumberName":"V-component_of_WINDS"},"data":[0,0,0,-1.566,-1.5661,-1.5691,-1.5691,-1.5737,-1.5737,0,0,0,0,0,0,0,0,0,0,0,-1.5655,-1.5656,-1.566,-1.5661,-1.5691,-1.5691,-1.5737,-1.5737,0,0,0,0,0,0,0,0,0,0,0,-1.5655,-1.5656,-1.5656,-1.5661,-1.5691,-1.5691,-1.5737,-1.5711,0,0,0,0,0,0,0,0,0,0,-1.5681,-1.5681,-1.5655,-1.5656,-1.5661,-1.5691,-1.5691,-1.571,-1.5713,-1.5726,0,-1.5739,0,-1.5739,-1.5741,-1.5741,0,0,0,-1.5658,-1.5678,-1.5682,-1.5656,-1.5662,-1.5691,-1.5677,-1.5712,-1.5715,-1.573,-1.5739,-1.5741,-1.574,-1.5741,-1.5742,-1.5825,-1.5825,0,0,-1.5656,-1.5663,-1.568,-1.5685,-1.568,-1.5676,-1.5678,-1.5714,-1.5724,-1.5739,-1.5742,-1.574,-1.5742,-1.5742,-1.5824,-1.5825,0,0,0,-1.5653,-1.5662,-1.5665,-1.5683,-1.5688,-1.5677,-1.5679,-1.5723,-1.5723,-1.5742,-1.5741,-1.5742,-1.5743,-1.5823,-1.5824,-1.5856,0,0,0,-1.5652,-1.5661,-1.5665,-1.5669,-1.5687,-1.5706,-1.5688,-1.5721,-1.5725,-1.5741,-1.5742,-1.5743,-1.5823,-1.5824,-1.5854,-1.587,0,0,0,-1.5652,-1.566,-1.5666,-1.567,-1.5683,-1.5705,-1.5707,-1.5721,-1.5724,-1.5741,-1.5743,-1.5822,-1.5824,-1.5852,-1.5867,-1.5893,0,0,0,-1.5654,-1.5695,-1.5667,-1.5712,-1.5683,-1.5724,-1.5707,-1.5738,-1.5757,-1.5742,-1.5823,-1.5824,-1.5851,-1.5865,-1.5891,-1.5916,-1.5927,0,0,-1.571,-1.5702,-1.5729,-1.5704,-1.5752,-1.5719,-1.5772,-1.5783,-1.5779,-1.581,-1.5812,-1.5855,-1.5867,-1.5893,-1.5987,-1.5996,0,0,0,-1.5749,-1.5768,-1.5779,-1.5796,-1.5805,-1.5813,-1.5815,-1.5819,-1.5844,-1.5796,-1.5871,-1.5878,-1.5893,-1.5905,-1.5912,-1.5924,-1.583,-1.583,-1.583,-1.5839,-1.583,-1.5872,-1.5866,-1.5883,-1.5884,-1.5897,-1.5902,-1.5889,-1.5907,-1.5916,-1.5974,-1.5988,-1.5994,-1.6006,-1.5928,-1.5929,-1.5929,-1.5929,-1.592,-1.5945,-1.5925,-1.5959,-1.5949,-1.5977,-1.5978,-1.5968,-1.5993,-1.5967,-1.598,-1.5953,-1.6004,-1.6014,-1.5931,-1.5931,-1.593,-1.593,-1.593,-1.5979,-1.5989,-1.5991,-1.6014,-1.6032,-1.6025,-1.6049,-1.6039,-1.603,-1.6043,-1.6051,-1.605,-1.6048,-1.6047,-1.6047,-1.6048,-1.6048,-1.6048,-1.6048,-1.6038,-1.6039,-1.606,-1.6071,-1.608,-1.609,-1.6089,-1.6098,-1.6105,-1.6096,-1.6096,-1.6081,-1.601,-1.5993,-1.6051,-1.6051,-1.605,-1.605,-1.605,-1.6123,-1.6101,-1.6134,-1.6142,-1.6153,-1.6171,-1.6158,-1.6175,-1.6181,-1.6193,-1.6174,-1.6124,-1.6116,-1.611,-1.6095,-1.6176,-1.6176,-1.6176,-1.6176,-1.6172,-1.6166,-1.6195,-1.6209,-1.6222,-1.6212,-1.6249,-1.6248,-1.6244,-1.6247,-1.6233,-1.6213,-1.6207,-1.6202,-1.6194,-1.618,-1.6282,-1.6282,-1.6282,-1.6223,-1.6218,-1.625,-1.6245,-1.6252,-1.6258,-1.6291,-1.6308,-1.6299,-1.6286,-1.6248,-1.6244,-1.6211,-1.6201,-1.6187,-1.6175,-1.6149,0,0]}]]